[[{"header":{"parameterUnit":"m.s-1","parameterCategory":1,"la1":30.2991,"la2":30.254,"lo1":-89.0895,"lo2":-89.0444,"dy":0.0017,"dx":0.0017,"nx":28,"ny":28,"refTime":"2025-03-24T03:00:00:Z","depth":0,"parameterNumber":2,"parameterNumberName":"U-component_of_WINDS"},"data":[0,0,0,0,0,0,0,0,0,0,0,0,0,0,0,0,0,0,0,0,0,0,0,0,0,0,0,0,0,0,0,0,0,0,0,0,0,0,0,0,0,0,0,0,0,0,0,0,0,0,0,0,0,0,0,0,0,0,-0.0997,-0.0997,0,-0.0945,-0.0945,-0.0944,-0.0921,-0.0921,-0.0921,-0.0921,-0.0865,-0.0864,-0.0862,0,0,0,0,0,0,0,0,0,0,0,0,0,-0.1073,-0.1072,-0.0997,-0.0997,-0.0996,-0.0945,-0.0945,-0.0944,-0.0921,-0.0921,-0.0921,-0.0921,-0.0866,-0.0864,-0.0862,0,0,0,0,0,0,0,0,0,0,0,0,0,-0.1033,-0.1072,-0.0997,-0.0978,-0.0976,-0.0945,-0.0945,-0.0944,-0.0921,-0.0921,-0.0921,-0.0921,-0.0866,-0.0864,-0.0862,-0.0845,0,0,-0.0855,-0.0853,0,0,0,0,0,0,0,0,-0.1035,-0.103,-0.0982,-0.098,-0.0977,-0.094,-0.0951,-0.0911,-0.0921,-0.0942,-0.0921,-0.0921,-0.089,-0.0885,-0.0875,-0.0842,-0.084,-0.0854,-0.0853,-0.0852,-0.0851,0,0,0,0,0,0,0,-0.1038,-0.1032,-0.0977,-0.0981,-0.0978,-0.0971,-0.0966,-0.0943,-0.0916,-0.094,-0.0938,-0.0932,-0.0888,-0.0878,-0.0874,-0.0839,-0.0854,-0.0852,-0.0851,-0.085,-0.0788,-0.0788,0,0,0,0,0,0,-0.1044,-0.1034,-0.0978,-0.0975,-0.1007,-0.097,-0.0964,-0.0952,-0.0916,-0.0911,-0.0932,-0.0931,-0.0882,-0.0877,-0.0872,-0.0849,-0.0852,-0.085,-0.0848,-0.0789,-0.0788,-0.0788,0,0,0,0,0,0,-0.1046,-0.1039,-0.098,-0.1004,-0.0996,-0.0969,-0.0955,-0.095,-0.094,-0.091,-0.0905,-0.0927,-0.0881,-0.0875,-0.0852,-0.0847,-0.0849,-0.0847,-0.0789,-0.0788,-0.0788,-0.0804,0,0,0,0,0,0,-0.1048,-0.104,-0.1034,-0.1004,-0.0995,-0.0962,-0.0955,-0.0949,-0.0936,-0.0934,-0.0903,-0.0898,-0.0881,-0.0855,-0.0849,-0.0843,-0.0845,-0.0789,-0.0789,-0.0788,-0.0804,-0.0804,-0.0804,0,0,0,0,0,-0.1051,-0.1041,-0.1034,-0.1028,-0.0988,-0.0962,-0.0957,-0.0938,-0.0936,-0.0929,-0.091,-0.0899,-0.0848,-0.0853,-0.0846,-0.084,-0.0789,-0.0789,-0.0788,-0.0803,-0.0804,-0.0804,0,0,0,0,0,0,-0.1071,-0.1037,-0.1029,-0.1009,-0.0989,-0.0958,-0.095,-0.0939,-0.0918,-0.0918,-0.0894,-0.0887,-0.0865,-0.085,-0.0856,-0.0821,-0.0818,-0.0816,-0.0832,-0.0832,-0.0832,-0.0836,-0.0843,0,0,0,0,0,-0.1073,-0.1056,-0.1027,-0.1012,-0.1002,-0.0978,-0.0966,-0.0953,-0.093,-0.0922,-0.0901,-0.0878,-0.0857,-0.0844,-0.0823,-0.0801,-0.0793,-0.0793,-0.0794,-0.0794,-0.0792,-0.0778,-0.0777,-0.0786,-0.0786,-0.0786,0,0,-0.1077,-0.1056,-0.1047,-0.1015,-0.0998,-0.098,-0.097,-0.0952,-0.0938,-0.0918,-0.0895,-0.0879,-0.0852,-0.083,-0.0818,-0.0816,-0.0788,-0.0793,-0.0794,-0.0792,-0.0778,-0.0777,-0.0776,-0.0786,-0.0786,-0.0786,0,0,-0.1074,-0.1058,-0.1043,-0.1026,-0.1,-0.0983,-0.098,-0.0951,-0.0939,-0.0916,-0.09,-0.0882,-0.0847,-0.0828,-0.0814,-0.0804,-0.0792,-0.0797,-0.0799,-0.0786,-0.0785,-0.0784,-0.0779,-0.0778,-0.0796,-0.0796,-0.0796,0,-0.1082,-0.1056,-0.1036,-0.1018,-0.1004,-0.0986,-0.097,-0.0954,-0.0922,-0.0912,-0.091,-0.0864,-0.0846,-0.0817,-0.0815,-0.0804,-0.0798,-0.0801,-0.0787,-0.0786,-0.0785,-0.078,-0.0778,-0.0797,-0.0797,-0.0796,-0.0796,0,-0.1066,-0.1047,-0.1038,-0.1009,-0.0993,-0.0976,-0.0953,-0.094,-0.0928,-0.0912,-0.0887,-0.0863,-0.0836,-0.0829,-0.0817,-0.0798,-0.0798,-0.0792,-0.0788,-0.0785,-0.078,-0.0778,-0.0798,-0.0797,-0.0797,-0.0797,0,0,-0.1075,-0.1034,-0.1031,-0.1017,-0.0986,-0.0971,-0.0953,-0.0927,-0.0915,-0.0894,-0.0877,-0.0846,-0.084,-0.0824,-0.081,-0.0798,-0.0789,-0.0793,-0.0792,-0.0792,-0.0766,-0.077,-0.0768,-0.0782,-0.0782,-0.0781,-0.0768,0,-0.1068,-0.1035,-0.1017,-0.0991,-0.0973,-0.0955,-0.0938,-0.0917,-0.0901,-0.0882,-0.0863,-0.0842,-0.0836,-0.0826,-0.0814,-0.0793,-0.0784,-0.0794,-0.0764,-0.0764,-0.0771,-0.0766,-0.077,-0.0759,-0.0766,-0.0765,-0.0765,0,-0.1056,-0.1035,-0.1007,-0.0978,-0.0969,-0.0955,-0.0929,-0.0912,-0.0887,-0.0875,-0.0857,-0.0843,-0.0821,-0.0819,-0.0788,-0.0795,-0.0782,-0.077,-0.0769,-0.0765,-0.0764,-0.076,-0.0754,-0.0752,-0.0762,-0.0762,-0.0762,0,-0.1064,-0.1029,-0.1007,-0.0996,-0.0961,-0.0951,-0.0936,-0.0911,-0.0896,-0.0873,-0.0863,-0.0838,-0.0824,-0.0804,-0.0782,-0.0783,-0.0753,-0.075,-0.0741,-0.0742,-0.0735,-0.0736,-0.0726,-0.0728,-0.0728,-0.0728,-0.0728,0,-0.1058,-0.1041,-0.1011,-0.0997,-0.0978,-0.0956,-0.0937,-0.092,-0.0898,-0.088,-0.0863,-0.0846,-0.0819,-0.0799,-0.0782,-0.0757,-0.0751,-0.074,-0.0736,-0.0742,-0.0743,-0.0732,-0.0732,-0.0728,-0.0728,-0.0728,-0.0728,0,-0.1064,-0.1043,-0.1018,-0.0987,-0.0978,-0.0965,-0.0938,-0.0924,-0.0906,-0.0884,-0.0877,-0.0849,-0.0824,-0.0801,-0.0767,-0.0755,-0.073,-0.0725,-0.0739,-0.0737,-0.0729,-0.073,-0.0712,-0.0708,-0.0714,-0.0714,-0.0714,0,-0.1061,-0.1048,-0.1015,-0.1002,-0.0988,-0.0967,-0.0952,-0.0929,-0.0914,-0.0884,-0.0872,-0.0846,-0.0824,-0.0784,-0.076,-0.0734,-0.0727,-0.0723,-0.0723,-0.0729,-0.0726,-0.0726,-0.0724,-0.0723,-0.0723,-0.0723,-0.0723,0,-0.1058,-0.1047,-0.1027,-0.1002,-0.0984,-0.0964,-0.0942,-0.0932,-0.0905,-0.0889,-0.0863,-0.0846,-0.0811,-0.0785,-0.0756,-0.0738,-0.0725,-0.0723,-0.0719,-0.0725,-0.0733,-0.0727,-0.0739,-0.0723,-0.0723,-0.0723,-0.0723,-0.0723,-0.1058,-0.1045,-0.102,-0.0997,-0.0978,-0.0958,-0.0943,-0.0924,-0.0902,-0.0873,-0.086,-0.0834,-0.0807,-0.0767,-0.075,-0.0727,-0.0725,-0.072,-0.0719,-0.0718,-0.0718,-0.0737,-0.0722,-0.0722,-0.0722,-0.0722,-0.0722,0,-0.1053,-0.1036,-0.1015,-0.0985,-0.0967,-0.0957,-0.0933,-0.0917,-0.0895,-0.0871,-0.085,-0.0819,-0.0793,-0.0767,-0.0739,-0.0726,-0.0719,-0.0719,-0.0719,-0.0715,-0.0723,-0.0728,-0.0725,-0.0725,-0.0725,-0.0725,-0.0725,-0.0725,-0.1048,-0.1025,-0.1012,-0.0979,-0.0961,-0.0936,-0.0922,-0.0903,-0.0884,-0.0851,-0.083,-0.0813,-0.0788,-0.0758,-0.0732,-0.0725,-0.0715,-0.0717,-0.0708,-0.0715,-0.0715,-0.0715,-0.072,-0.0715,-0.0715,-0.0702,-0.0702,-0.0701]},{"header":{"parameterUnit":"m.s-1","parameterCategory":1,"la1":30.2991,"la2":30.254,"lo1":-89.0895,"lo2":-89.0444,"dy":0.0017,"dx":0.0017,"nx":28,"ny":28,"refTime":"2025-03-24T03:00:00:Z","depth":0,"parameterNumber":3,"parameterNumberName":"V-component_of_WINDS"},"data":[0,0,0,0,0,0,0,0,0,0,0,0,0,0,0,0,0,0,0,0,0,0,0,0,0,0,0,0,0,0,0,0,0,0,0,0,0,0,0,0,0,0,0,0,0,0,0,0,0,0,0,0,0,0,0,0,0,0,0.6802,0.6803,0,0.6918,0.692,0.6921,0.6979,0.6979,0.6979,0.6979,0.7101,0.7104,0.7108,0,0,0,0,0,0,0,0,0,0,0,0,0,0.6632,0.6635,0.6801,0.6803,0.6804,0.6918,0.692,0.6921,0.6979,0.6979,0.6979,0.6979,0.71,0.7104,0.7108,0,0,0,0,0,0,0,0,0,0,0,0,0,0.6723,0.6636,0.6801,0.6847,0.6852,0.6918,0.692,0.6922,0.6979,0.6979,0.6979,0.6979,0.7099,0.7104,0.7108,0.7138,0,0,0.7123,0.7125,0,0,0,0,0,0,0,0,0.6718,0.6729,0.6839,0.6844,0.685,0.6934,0.6905,0.6994,0.6979,0.6931,0.6979,0.6979,0.7046,0.7055,0.7077,0.7144,0.7149,0.7124,0.7127,0.7129,0.713,0,0,0,0,0,0,0,0.6712,0.6725,0.6848,0.684,0.6847,0.6863,0.6876,0.6922,0.6987,0.6935,0.694,0.6953,0.7049,0.7072,0.708,0.7151,0.7124,0.7128,0.7131,0.7133,0.725,0.725,0,0,0,0,0,0,0.6697,0.6719,0.6844,0.6851,0.6783,0.6866,0.688,0.6907,0.6987,0.6999,0.6953,0.6955,0.7064,0.7075,0.7085,0.7126,0.7129,0.7133,0.7136,0.7249,0.725,0.725,0,0,0,0,0,0,0.6694,0.6708,0.6839,0.6786,0.6804,0.6869,0.6898,0.691,0.6933,0.7,0.7012,0.6964,0.7064,0.7078,0.7125,0.7131,0.7135,0.714,0.7249,0.7249,0.725,0.7207,0,0,0,0,0,0,0.6688,0.6706,0.6717,0.6786,0.6807,0.6876,0.6899,0.6912,0.6941,0.6945,0.7014,0.7025,0.7065,0.7117,0.7129,0.7138,0.7144,0.7249,0.7249,0.725,0.7208,0.7206,0.7204,0,0,0,0,0,0.6682,0.6701,0.6717,0.6732,0.6822,0.6876,0.6888,0.6933,0.6941,0.6953,0.6997,0.7023,0.7128,0.7121,0.7136,0.7146,0.7249,0.7249,0.725,0.7209,0.7207,0.7204,0,0,0,0,0,0,0.6631,0.671,0.673,0.6771,0.6816,0.6886,0.6902,0.6928,0.6973,0.6975,0.703,0.7045,0.7087,0.7121,0.7112,0.7179,0.7191,0.7194,0.7156,0.7154,0.7151,0.7143,0.7148,0,0,0,0,0,0.6624,0.6661,0.6729,0.6759,0.678,0.6837,0.6863,0.6894,0.6943,0.6963,0.701,0.7057,0.7102,0.7129,0.7173,0.7214,0.723,0.7228,0.7225,0.7223,0.7226,0.7252,0.7252,0.7251,0.7251,0.7251,0,0,0.6611,0.6659,0.6679,0.6749,0.6788,0.6826,0.6853,0.6892,0.6921,0.6969,0.7016,0.7052,0.7109,0.7153,0.7175,0.7183,0.723,0.7224,0.7222,0.7226,0.7252,0.7252,0.7252,0.7252,0.7252,0.7251,0,0,0.6607,0.6646,0.6676,0.6715,0.6773,0.6811,0.6818,0.6884,0.691,0.6958,0.6995,0.7031,0.7105,0.7145,0.7175,0.7188,0.7214,0.72,0.7189,0.7214,0.7214,0.7214,0.722,0.7221,0.7203,0.7202,0.7202,0,0.6583,0.6641,0.6688,0.6725,0.6756,0.6801,0.6833,0.6868,0.6938,0.6959,0.6966,0.7061,0.7103,0.7158,0.7161,0.7183,0.7194,0.7193,0.721,0.7211,0.7212,0.7218,0.722,0.72,0.7201,0.7201,0.7201,0,0.661,0.665,0.6667,0.6734,0.6766,0.68,0.6854,0.6882,0.691,0.6948,0.6997,0.7049,0.7105,0.712,0.7148,0.7179,0.7183,0.7199,0.7212,0.7209,0.7216,0.7219,0.7198,0.7198,0.7199,0.7199,0,0,0.6577,0.6669,0.6675,0.6706,0.6775,0.6807,0.6844,0.6898,0.6922,0.6969,0.7002,0.7065,0.7081,0.7115,0.7148,0.7169,0.7178,0.7184,0.7186,0.7182,0.7218,0.7205,0.7207,0.7196,0.7197,0.7197,0.7213,0,0.6583,0.665,0.6694,0.6745,0.6783,0.6827,0.686,0.6906,0.6942,0.6981,0.7022,0.7066,0.7083,0.7105,0.7127,0.7172,0.7186,0.7171,0.7229,0.7231,0.7214,0.7211,0.7198,0.721,0.7216,0.7217,0.7217,0,0.6599,0.6645,0.6699,0.6765,0.6782,0.6811,0.6865,0.6901,0.6955,0.6981,0.7019,0.7053,0.7095,0.7104,0.7165,0.7154,0.718,0.7206,0.7207,0.7215,0.7224,0.722,0.7216,0.7218,0.7222,0.7221,0.7221,0,0.6571,0.6646,0.6689,0.6714,0.6791,0.681,0.6844,0.6898,0.6928,0.6976,0.6997,0.7049,0.7078,0.7118,0.7166,0.7168,0.7222,0.7235,0.7246,0.7245,0.7256,0.7255,0.7257,0.7271,0.7271,0.7271,0.7271,0,0.6574,0.6605,0.6677,0.6703,0.6741,0.6792,0.6828,0.6865,0.6913,0.6949,0.699,0.7022,0.7083,0.7124,0.7161,0.7207,0.7219,0.7242,0.7252,0.7239,0.7236,0.7257,0.7258,0.7271,0.7271,0.7271,0.7271,0,0.6548,0.6597,0.6647,0.6716,0.6735,0.6759,0.682,0.6848,0.6887,0.6931,0.6945,0.7006,0.7056,0.7108,0.7175,0.7201,0.7245,0.7258,0.7227,0.7233,0.7241,0.724,0.7258,0.7264,0.7272,0.7272,0.7272,0,0.6547,0.6573,0.6645,0.6672,0.6704,0.6746,0.6777,0.6829,0.686,0.6925,0.6945,0.6998,0.7044,0.7122,0.7173,0.7226,0.7241,0.7244,0.7249,0.7236,0.7243,0.7241,0.7245,0.7242,0.7242,0.7241,0.7241,0,0.6541,0.6564,0.6607,0.666,0.6696,0.674,0.6785,0.6805,0.6866,0.69,0.6951,0.6986,0.7055,0.7108,0.7167,0.7203,0.7233,0.7239,0.7245,0.7232,0.7213,0.7225,0.7223,0.7238,0.7239,0.7239,0.7239,0.7239,0.6529,0.6554,0.6609,0.6657,0.6697,0.6738,0.6769,0.6812,0.6855,0.6915,0.6944,0.6996,0.7051,0.7133,0.7168,0.7211,0.7219,0.7227,0.7229,0.723,0.7228,0.7206,0.7222,0.7222,0.7222,0.7222,0.7222,0,0.6526,0.6564,0.6607,0.6669,0.6707,0.6731,0.6783,0.6813,0.6858,0.6907,0.6951,0.7011,0.7063,0.7118,0.7174,0.7197,0.7213,0.721,0.721,0.7218,0.7217,0.7207,0.7197,0.7197,0.7197,0.7197,0.7197,0.7197,0.6529,0.6573,0.6604,0.6669,0.6707,0.6758,0.6786,0.6825,0.6865,0.693,0.6973,0.7009,0.7061,0.7121,0.717,0.7185,0.7205,0.7198,0.7218,0.7216,0.7218,0.7219,0.7211,0.7202,0.7202,0.7216,0.7216,0.7216]}]]